Weather History for Burnet, TX

Change the Weather History Date:

Tuesday, January 21, 2014

  Actual Average Record
Temperature  
Mean Temperature 46 °F -  
Max Temperature 57 °F 58 °F 82 °F (2003)
Min Temperature 34 °F 37 °F 21 °F (2011)
Degree Days  
Heating Degree Days 19    
Moisture  
Dew Point 21 °F    
Average Humidity 37    
Maximum Humidity 64    
Minimum Humidity 22    
Precipitation  
Precipitation 0.00 in - - ()
Sea Level Pressure  
Sea Level Pressure 30.32 in    
Wind  
Wind Speed 9 mph (NNW)    
Max Wind Speed 14 mph    
Max Gust Speed 22 mph    
Visibility 10 miles    
Events      
Averages and records for this station are not official NWS values.
T = Trace of Precipitation, MM = Missing Value Source: NWS Daily Summary

Daily Weather History Graph

Daily Weather History Graph

Search for Another Location

Airport:

Trip Planner

Search our weather history database for the weather conditions in past years. The results will help you decide how hot, cold, wet, or windy it might be!

Date:

Astronomy

Jan. 21, 2014 Rise Set
Actual Time 7:29 AM CST 5:59 PM CST
Civil Twilight 7:03 AM CST 6:25 PM CST
Nautical Twilight 6:34 AM CST 6:54 PM CST
Astronomical Twilight 6:05 AM CST 7:23 PM CST
Moon 11:07 PM CST (1/21) 10:23 AM CST (1/21)
Length of Visible Light 11h 21m
Length of Day
10h 29m
Waning Gibbous, 74% of the Moon is Illuminated
Jan 21
Waning Gibbous
Jan 23
Last Quarter
Jan 30
New
Feb 6
First Quarter
Feb 14
Full

Hourly Weather History & Observations

Time (CST) Temp. Windchill Dew Point Humidity Pressure Visibility Wind Dir Wind Speed Gust Speed Precip Events Conditions
12:53 AM 54.0 °F - 24.1 °F 31% 30.23 in 10.0 mi North 11.5 mph 21.9 mph N/A   Clear
1:53 AM 52.0 °F - 21.9 °F 31% 30.25 in 10.0 mi North 12.7 mph - N/A   Clear
2:53 AM 51.1 °F - 21.0 °F 31% 30.28 in 10.0 mi North 9.2 mph 19.6 mph N/A   Clear
3:53 AM 48.9 °F - 21.0 °F 33% 30.30 in 10.0 mi North 9.2 mph - N/A   Clear
4:53 AM 46.9 °F - 21.0 °F 36% 30.32 in 10.0 mi NNW 11.5 mph - N/A   Clear
5:53 AM 45.0 °F 40.1 °F 21.0 °F 39% 30.34 in 10.0 mi NNW 9.2 mph - N/A   Clear
6:53 AM 44.1 °F 38.6 °F 21.0 °F 40% 30.38 in 10.0 mi NNW 10.4 mph - N/A   Clear
7:53 AM 43.0 °F 37.2 °F 21.0 °F 42% 30.41 in 10.0 mi NNW 10.4 mph - N/A   Clear
8:53 AM 45.0 °F 38.9 °F 19.9 °F 37% 30.43 in 10.0 mi North 12.7 mph - N/A   Clear
9:53 AM 48.9 °F - 19.9 °F 32% 30.44 in 10.0 mi North 10.4 mph - N/A   Clear
10:53 AM 52.0 °F - 19.9 °F 28% 30.44 in 10.0 mi NNW 12.7 mph - N/A   Clear
11:53 AM 54.0 °F - 19.9 °F 26% 30.41 in 10.0 mi NNE 12.7 mph - N/A   Clear
12:53 PM 55.9 °F - 19.9 °F 25% 30.37 in 10.0 mi NNW 13.8 mph 19.6 mph N/A   Clear
1:53 PM 57.0 °F - 19.0 °F 23% 30.34 in 10.0 mi NNW 9.2 mph - N/A   Clear
2:53 PM 57.0 °F - 18.0 °F 22% 30.32 in 10.0 mi NNW 8.1 mph - N/A   Clear
3:53 PM 57.9 °F - 19.0 °F 22% 30.30 in 10.0 mi Variable 4.6 mph - N/A   Clear
4:53 PM 55.0 °F - 19.9 °F 25% 30.29 in 10.0 mi WSW 5.8 mph - N/A   Clear
5:53 PM 53.1 °F - 21.0 °F 29% 30.29 in 10.0 mi Calm Calm - N/A   Clear
6:53 PM 46.0 °F - 24.1 °F 42% 30.29 in 10.0 mi Calm Calm - N/A   Clear
7:53 PM 42.1 °F - 25.0 °F 51% 30.28 in 10.0 mi Calm Calm - N/A   Clear
8:53 PM 37.9 °F - 24.1 °F 57% 30.27 in 10.0 mi Calm Calm - N/A   Clear
9:53 PM 37.0 °F - 23.0 °F 57% 30.25 in 10.0 mi Calm Calm - N/A   Clear
10:53 PM 35.1 °F - 23.0 °F 61% 30.23 in 10.0 mi Calm Calm - N/A   Clear
11:53 PM 34.0 °F - 23.0 °F 64% 30.23 in 10.0 mi Calm Calm - N/A   Clear